Location: Casteau
(50.5142°N, 4.0161°E)
Time: 13:20:52
(UTC+00:00)

Vanguard 1 - All Passes

Search period start: 04 August 2021 00:00
Search period end: 14 August 2021 00:00
Orbit: 652 x 3831 km, 34.2° (Epoch: 03 August)

Date Brightness Start Highest point End Pass type
(mag) Time Alt. Az. Time Alt. Az. Time Alt. Az.
04 Aug - 09:40:02 10° S 09:41:06 11° SSE 09:42:14 10° SE daylight
04 Aug - 11:56:02 10° SW 12:00:01 19° S 12:05:23 10° SE daylight
04 Aug - 14:15:30 10° SW 14:19:53 16° SSW 14:25:38 10° SSE daylight
05 Aug - 09:59:26 10° S 10:01:34 13° SSE 10:03:58 10° SE daylight
05 Aug - 12:16:47 10° SW 12:20:39 18° S 12:25:48 10° SE daylight
05 Aug - 14:37:45 10° SW 14:40:39 12° SSW 14:44:04 10° S daylight
06 Aug - 10:19:33 10° SSW 10:22:05 14° SSE 10:25:01 10° SE daylight
06 Aug - 12:37:47 10° SW 12:41:20 16° S 12:45:52 10° SSE daylight
07 Aug - 10:39:58 10° SSW 10:42:39 14° S 10:45:46 10° SE daylight
07 Aug - 12:59:13 10° SW 13:02:01 13° S 13:05:24 10° SSE daylight
08 Aug - 11:00:40 10° SSW 11:03:14 14° S 11:06:14 10° SSE daylight
09 Aug - 09:03:57 10° S 09:04:50 10° S 09:05:45 10° SSE daylight
09 Aug - 11:21:41 10° SSW 11:23:51 12° S 11:26:19 10° SSE daylight
10 Aug - 09:23:55 10° SSW 09:25:22 11° S 09:26:55 10° SSE daylight
10 Aug - 11:43:32 10° SSW 11:44:29 10° S 11:45:29 10° S daylight
11 Aug - 09:44:28 10° SSW 09:45:57 11° S 09:47:30 10° SSE daylight
12 Aug - 10:05:34 10° SSW 10:06:31 11° S 10:07:30 10° S daylight
13 Aug - 08:07:05 10° S 08:08:07 11° S 08:09:08 10° SSE daylight
